This is the latest recevied weather packets stored in our database for station/object W4KAB. If no packets are shown the sender has not sent any weather packets the latest 10 day(s).
| Time | Temp. | Humidity | Pressure | Rain* | Wind** | Luminosity | Snow |
|---|---|---|---|---|---|---|---|
| 1777786151 | 5° C | 84% | 1017.8 hPa | 0 mm | - | 0 W/m² | - |
| 1777785848 | 4.44° C | 85% | 1017.9 hPa | 0 mm | - | 0 W/m² | - |
| 1777785544 | 4.44° C | 85% | 1017.8 hPa | 0 mm | - | 0 W/m² | - |
| 1777785240 | 5° C | 83% | 1017.8 hPa | 0 mm | - | 0 W/m² | - |
| 1777784938 | 5° C | 81% | 1017.9 hPa | 0 mm | - | 0 W/m² | - |
| 1777784634 | 5.56° C | 81% | 1017.9 hPa | 0 mm | - | 0 W/m² | - |
| 1777784332 | 5.56° C | 82% | 1017.9 hPa | 0 mm | - | 0 W/m² | - |
| 1777784029 | 5.56° C | 82% | 1017.8 hPa | 0 mm | - | 0 W/m² | - |
| 1777783725 | 5.56° C | 82% | 1017.9 hPa | 0 mm | - | 0 W/m² | - |
| 1777783423 | 5.56° C | 81% | 1017.9 hPa | 0 mm | - | 0 W/m² | - |
| 1777783119 | 5.56° C | 78% | 1017.6 hPa | 0 mm | - | 0 W/m² | - |
| 1777782816 | 5.56° C | 79% | 1017.8 hPa | 0 mm | - | 0 W/m² | - |
| 1777782513 | 5.56° C | 80% | 1017.8 hPa | 0 mm | - | 0 W/m² | - |
| 1777782210 | 5.56° C | 80% | 1017.6 hPa | 0 mm | - | 0 W/m² | - |
| 1777781905 | 5.56° C | 79% | 1017.8 hPa | 0 mm | - | 0 W/m² | - |
| 1777781603 | 5.56° C | 79% | 1017.7 hPa | 0 mm | - | 0 W/m² | - |
| 1777781301 | 5.56° C | 79% | 1017.4 hPa | 0 mm | - | 0 W/m² | - |
| 1777780998 | 5.56° C | 76% | 1017.6 hPa | 0 mm | - | 0 W/m² | - |
| 1777780695 | 6.11° C | 78% | 1017.5 hPa | 0 mm | - | 0 W/m² | - |
| 1777780392 | 6.11° C | 77% | 1017.6 hPa | 0 mm | - | 0 W/m² | - |
| 1777780089 | 6.11° C | 77% | 1017.6 hPa | 0 mm | - | 0 W/m² | - |
| 1777779786 | 6.67° C | 76% | 1017.5 hPa | 0 mm | - | 0 W/m² | - |
| 1777779483 | 6.67° C | 75% | 1017.4 hPa | 0 mm | - | 0 W/m² | - |
| 1777779181 | 7.22° C | 73% | 1017.5 hPa | 0 mm | - | 0 W/m² | - |
| 1777778879 | 7.22° C | 73% | 1017.3 hPa | 0 mm | - | 0 W/m² | - |
* Rain latest hour (hover to see other rain measurements)
** Current wind speed in m/s (hover to see current wind gust speed)